Location: Gisborne
(38.6530°S, 178.0040°E)
Time: 12:22:59
(UTC+13:00)

Helios 1B rocket - Pass Details

Date: 24 January 2019
Orbit: 575 x 586 km, 98.2° (Epoch: 16 February)

Event Time Altitude Azimuth Distance (km) Brightness Sun altitude
Exits shadow 23:00:41 76° 303° (WNW) 608 2.4 -23.6°
Maximum altitude 23:00:48 77° 283° (WNW) 606 2.4 -23.6°
Drops below altitude 10° 23:04:58 10° 196° (SSW) 1,924 6.0 -24.0°
Sets 23:07:09 0° 194° (SSW) 2,834 7.1 -24.3°
